Flag for Cocos Islands Weather past 2 weeks in Bantam, Cocos Islands

Now
82 °F

Scattered clouds.


Feels Like: 87 °F
Forecast: 78 / 82 °F
Wind: 17 mph from East

Location: Cocos Island Airport

Current Time: Sep 3, 2015 at 2:19:18 PM

Latest Report: Sep 3, 2015 at 1:30 PM


Visibility: N/A

Pressure: 29.92 "Hg

Humidity: 70%

Dew point: 72 °F

Location of BantamLocation

Historic Weather in Bantam — Graph

°F

Bantam temperature yesterday

Maximum temperature yesterday: 82 °F (at 11:30 AM)
Minimum temperature yesterday: 77 °F (at 12:30 AM)
Average temperature yesterday: 79 °F

Past Weeks' High & Low Weather Summary

 TemperatureHumidityPressure
High82 °F (Aug 19, 12:30 PM)94% (Aug 21, 11:00 PM)30.07 "Hg (Aug 21, 11:00 PM)
Low73 °F (Sep 1, 8:00 AM)55% (Aug 30, 2:00 PM)29.89 "Hg (Aug 22, 3:30 PM)
Average79 °F74%29.96 "Hg
* Reported Aug 19 12:30 PM — Sep 3 1:00 PM, Bantam, Weather by CustomWeather, © 2015

Note: Actual official high and low records may vary slightly from our data, if they occured in-between our weather recording intervals... More about our weather records

Advertising

Bantam weather history for previous 24 hours

 ConditionsComfort  
Time TempWeatherWind HumidityBarometerVisibility
1:00 PM
Thu, Sep 3
82 °FScattered clouds.17 mph70%29.95 "HgN/A
12:30 PM82 °FWarm.17 mph66%29.95 "HgN/A
12:00 PM81 °FSunny.18 mph70%29.95 "HgN/A
11:30 AM81 °FSunny.18 mph66%29.95 "HgN/A
11:00 AM81 °FPartly sunny.18 mph70%29.98 "HgN/A
10:30 AM81 °FScattered clouds.18 mph66%29.98 "HgN/A
10:00 AM81 °FScattered clouds.17 mph70%29.98 "HgN/A
9:30 AM81 °FScattered clouds.17 mph70%29.98 "HgN/A
8:30 AM79 °FScattered clouds.17 mph74%29.98 "HgN/A
8:00 AM79 °FWarm.17 mph70%29.98 "HgN/A
7:30 AM79 °FSunny.17 mph70%29.95 "HgN/A
7:00 AM77 °FClear.16 mph74%29.95 "HgN/A
6:30 AM77 °FClear.16 mph79%29.95 "HgN/A
6:00 AM77 °FClear.16 mph74%29.95 "HgN/A
5:30 AM77 °FClear.16 mph74%29.92 "HgN/A
5:00 AM77 °FPassing clouds.16 mph79%29.92 "HgN/A
4:30 AM77 °FClear.13 mph79%29.92 "HgN/A
4:00 AM77 °FClear.15 mph74%29.92 "HgN/A
3:30 AM77 °FClear.13 mph79%29.92 "HgN/A
3:00 AM77 °FWarm.15 mph79%29.92 "HgN/A
2:30 AM77 °FPassing clouds.17 mph79%29.92 "HgN/A
2:00 AM77 °FPassing clouds.16 mph79%29.95 "HgN/A
1:30 AM79 °FClear.15 mph74%29.95 "HgN/A
1:00 AM79 °FClear.17 mph74%29.95 "HgN/A
12:30 AM79 °FClear.17 mph74%29.95 "HgN/A
12:00 AM79 °FClear.16 mph74%29.95 "HgN/A
11:30 PM
Wed, Sep 2
79 °FClear.17 mph74%29.95 "HgN/A
11:00 PM79 °FClear.17 mph74%29.95 "HgN/A
10:00 PM79 °FClear.16 mph74%29.95 "HgN/A
9:30 PM79 °FClear.17 mph74%29.95 "HgN/A
9:00 PM79 °FPassing clouds.16 mph79%29.95 "HgN/A
8:30 PM79 °FClear.16 mph74%29.95 "HgN/A
8:00 PM79 °FPassing clouds.18 mph74%29.95 "HgN/A
7:30 PM79 °FPassing clouds.17 mph79%29.92 "HgN/A
7:00 PM79 °FClear.18 mph74%29.92 "HgN/A
6:30 PM79 °FSunny.20 mph74%29.92 "HgN/A
6:00 PM79 °FScattered clouds.18 mph74%29.92 "HgN/A
5:30 PM81 °FWarm.20 mph70%29.89 "HgN/A
5:00 PM81 °FScattered clouds.20 mph70%29.89 "HgN/A
4:30 PM81 °FPassing clouds.21 mph74%29.89 "HgN/A
4:00 PM81 °FPassing clouds.21 mph70%29.89 "HgN/A
3:30 PM81 °FPassing clouds.20 mph74%29.89 "HgN/A
2:30 PM82 °FScattered clouds.21 mph70%29.89 "HgN/A
2:00 PM82 °FPartly sunny.20 mph70%29.89 "HgN/A
Weather by CustomWeather, © 2015

See weather overviewHow to use our weather pages